Volver al catálogo

COSMOS 768

ActivoMilitarLEO
NORAD 8292·PAYLOAD·🇷🇺 Russia

Lanzado Sep 17, 1975 desde Plesetsk Cosmodrome

Loading…

Próximos Pases (próximas 24 horas)

TLE

ActualizadoSource: Space-Track

Época: Sep 14, 2026, 05:32 UTC

1 08292U 75086H   26257.23088302 -.00000005  00000-0  74824-4 0  9990
2 08292  74.0140 356.0877 0012607 161.8167 222.0991 12.46116213319590

Sigue COSMOS 768 en tiempo real con AllMySat

Download on the App Store